Location: Highridge
(54.0333°N, 114.1333°W)
Time: 11:59:41
(UTC+00:00)

CUBESAT XI-V - Visible Passes

Search period start: 08 December 2023 00:00
Search period end: 18 December 2023 00:00
Orbit: 661 x 683 km, 98.2° (Epoch: 06 December)

Date Brightness Start Highest point End Pass type
(mag) Time Alt. Az. Time Alt. Az. Time Alt. Az.
09 Dec ? 00:29:06 10° NNW 00:31:55 16° NW 00:34:42 10° W visible
10 Dec ? 23:58:04 10° N 00:01:51 25° WNW 00:05:36 10° WSW visible
12 Dec ? 00:32:08 10° NNW 00:34:49 15° NW 00:37:29 10° W visible
14 Dec ? 00:01:02 10° N 00:04:44 24° WNW 00:08:25 10° WSW visible
15 Dec ? 00:35:09 10° NNW 00:37:41 15° NW 00:40:12 10° W visible
17 Dec ? 00:03:58 10° N 00:07:36 23° WNW 00:11:11 10° WSW visible
